When you browse on this site, cookies collect data to enhance your experience and personalize the content and advertising you see.
Visit our Privacy Policy to learn more. By continuing to use the site, you agree to this use of cookies and data.
  • în România
  • Lista ţărilor
  • Pe 7 zile
  • Temperatura apei
  • Hartă satelitară
  • Meteo pe hartă
  • Widget-uri
  • user-avatar
    Intrare

    Meteo pe oră la Szeged

    Astăzi, 24 Iunie, Luni

    Timp Temperatura Precipitaţii Vânt Presiune Umiditate
    00:00 +20°C° 0.4 mm 2 m/s 754 mmHg 93%
    01:00 +20°C° 0 mm 2 m/s 755 mmHg 95%
    02:00 +20°C° 1 mm 2 m/s 754 mmHg 95%
    03:00 +19°C° 1 mm 2 m/s 754 mmHg 95%
    04:00 +19°C° 1 mm 2 m/s 754 mmHg 95%
    05:00 +20°C° 0.7 mm 2 m/s 755 mmHg 95%
    06:00 +20°C° 0.7 mm 3 m/s 755 mmHg 94%
    07:00 +20°C° 0 mm 3 m/s 756 mmHg 95%
    08:00 +21°C° 0.3 mm 3 m/s 756 mmHg 91%
    09:00 +22°C° 0.3 mm 3 m/s 756 mmHg 87%
    10:00 +24°C° 0.3 mm 3 m/s 756 mmHg 83%
    11:00 +25°C° 0 mm 3 m/s 756 mmHg 81%
    12:00 +26°C° 0 mm 3 m/s 756 mmHg 79%
    13:00 +27°C° 0 mm 2 m/s 756 mmHg 77%
    14:00 +27°C° 0 mm 2 m/s 756 mmHg 75%
    15:00 +27°C° 0 mm 2 m/s 756 mmHg 74%
    16:00 +28°C° 0 mm 2 m/s 756 mmHg 72%
    17:00 +27°C° 0.2 mm 2 m/s 756 mmHg 76%
    18:00 +26°C° 0.2 mm 2 m/s 756 mmHg 80%
    19:00 +25°C° 0.2 mm 2 m/s 757 mmHg 84%
    20:00 +24°C° 0 mm 2 m/s 757 mmHg 87%
    21:00 +24°C° 0 mm 2 m/s 757 mmHg 89%
    22:00 +23°C° 0 mm 2 m/s 757 mmHg 91%
    23:00 +21°C° 0 mm 2 m/s 758 mmHg 92%

    Mâine, 25 Iunie, Marţi

    Timp Temperatura Precipitaţii Vânt Presiune Umiditate
    00:00 +21°C° 0 mm 2 m/s 758 mmHg 94%
    01:00 +20°C° 0 mm 3 m/s 758 mmHg 95%
    02:00 +20°C° 0 mm 2 m/s 758 mmHg 96%
    03:00 +20°C° 0 mm 2 m/s 758 mmHg 96%
    04:00 +19°C° 0 mm 2 m/s 758 mmHg 97%
    05:00 +21°C° 0 mm 2 m/s 758 mmHg 91%
    06:00 +24°C° 0 mm 2 m/s 759 mmHg 85%
    07:00 +25°C° 0 mm 2 m/s 759 mmHg 79%
    08:00 +27°C° 0 mm 3 m/s 759 mmHg 74%
    09:00 +28°C° 0 mm 3 m/s 760 mmHg 69%
    10:00 +29°C° 0 mm 4 m/s 760 mmHg 64%
    11:00 +30°C° 0 mm 4 m/s 760 mmHg 62%
    12:00 +32°C° 0 mm 4 m/s 760 mmHg 59%
    13:00 +33°C° 0 mm 4 m/s 759 mmHg 57%
    14:00 +32°C° 0 mm 4 m/s 759 mmHg 59%
    15:00 +32°C° 0 mm 4 m/s 759 mmHg 61%
    16:00 +32°C° 0 mm 4 m/s 759 mmHg 63%
    17:00 +30°C° 0 mm 3 m/s 759 mmHg 68%
    18:00 +29°C° 0 mm 3 m/s 759 mmHg 74%
    19:00 +28°C° 0 mm 2 m/s 759 mmHg 79%
    20:00 +27°C° 0 mm 2 m/s 759 mmHg 80%
    21:00 +26°C° 0 mm 2 m/s 760 mmHg 81%
    22:00 +25°C° 0 mm 2 m/s 760 mmHg 82%
    23:00 +24°C° 0 mm 2 m/s 760 mmHg 83%

    Poimâine, 26 Iunie, Miercuri

    Timp Temperatura Precipitaţii Vânt Presiune Umiditate
    00:00 +24°C° 0 mm 2 m/s 760 mmHg 85%
    01:00 +23°C° 0 mm 2 m/s 760 mmHg 86%
    02:00 +23°C° 0 mm 2 m/s 760 mmHg 87%
    03:00 +23°C° 0 mm 2 m/s 760 mmHg 88%
    04:00 +21°C° 0 mm 2 m/s 760 mmHg 89%
    05:00 +24°C° 0 mm 2 m/s 760 mmHg 84%
    06:00 +25°C° 0 mm 2 m/s 760 mmHg 78%
    07:00 +27°C° 0 mm 2 m/s 761 mmHg 73%
    08:00 +28°C° 0 mm 2 m/s 761 mmHg 68%
    09:00 +29°C° 0 mm 2 m/s 760 mmHg 62%
    10:00 +31°C° 0 mm 2 m/s 760 mmHg 57%
    11:00 +31°C° 0 mm 2 m/s 760 mmHg 54%
    12:00 +32°C° 0 mm 2 m/s 760 mmHg 51%
    13:00 +34°C° 0 mm 2 m/s 760 mmHg 48%
    14:00 +34°C° 0 mm 2 m/s 759 mmHg 48%
    15:00 +34°C° 0 mm 2 m/s 759 mmHg 48%
    16:00 +34°C° 0 mm 2 m/s 759 mmHg 48%
    17:00 +31°C° 0 mm 2 m/s 758 mmHg 54%
    18:00 +30°C° 0 mm 1 m/s 758 mmHg 60%
    19:00 +28°C° 0 mm 1 m/s 758 mmHg 66%
    20:00 +27°C° 0 mm 1 m/s 758 mmHg 68%
    21:00 +26°C° 0 mm 1 m/s 758 mmHg 70%
    22:00 +25°C° 0 mm 1 m/s 758 mmHg 72%
    23:00 +25°C° 0 mm 1 m/s 758 mmHg 73%

    27 Iunie, Joi

    Timp Temperatura Precipitaţii Vânt Presiune Umiditate
    00:00 +24°C° 0 mm 1 m/s 758 mmHg 74%
    01:00 +24°C° 0 mm 1 m/s 758 mmHg 75%
    02:00 +24°C° 0 mm 1 m/s 758 mmHg 77%
    03:00 +23°C° 0 mm 1 m/s 757 mmHg 79%
    04:00 +23°C° 0 mm 2 m/s 757 mmHg 80%
    05:00 +24°C° 0 mm 2 m/s 757 mmHg 77%
    06:00 +26°C° 0 mm 2 m/s 757 mmHg 73%
    07:00 +27°C° 0 mm 2 m/s 757 mmHg 70%
    08:00 +29°C° 0 mm 2 m/s 757 mmHg 65%
    09:00 +30°C° 0 mm 3 m/s 756 mmHg 60%
    10:00 +33°C° 0 mm 4 m/s 756 mmHg 56%
    11:00 +33°C° 0 mm 4 m/s 756 mmHg 55%
    12:00 +34°C° 0 mm 4 m/s 755 mmHg 55%
    13:00 +34°C° 0 mm 4 m/s 755 mmHg 55%
    14:00 +34°C° 0.7 mm 4 m/s 754 mmHg 57%
    15:00 +34°C° 0.7 mm 4 m/s 754 mmHg 60%
    16:00 +34°C° 0.7 mm 4 m/s 753 mmHg 63%
    17:00 +32°C° 0.9 mm 4 m/s 753 mmHg 68%
    18:00 +30°C° 0.9 mm 4 m/s 753 mmHg 73%
    19:00 +28°C° 0.9 mm 4 m/s 753 mmHg 78%
    20:00 +27°C° 0.2 mm 5 m/s 753 mmHg 81%
    21:00 +26°C° 0.2 mm 5 m/s 753 mmHg 84%
    22:00 +23°C° 0.2 mm 5 m/s 754 mmHg 86%
    23:00 +22°C° 0 mm 5 m/s 754 mmHg 83%

    28 Iunie, Vineri

    Timp Temperatura Precipitaţii Vânt Presiune Umiditate
    00:00 +21°C° 0 mm 5 m/s 754 mmHg 79%
    01:00 +20°C° 0 mm 5 m/s 754 mmHg 76%
    02:00 +20°C° 0 mm 4 m/s 754 mmHg 78%
    03:00 +19°C° 0 mm 4 m/s 755 mmHg 81%
    04:00 +19°C° 0 mm 4 m/s 755 mmHg 83%
    05:00 +20°C° 0 mm 4 m/s 755 mmHg 79%
    06:00 +21°C° 0 mm 4 m/s 755 mmHg 74%
    07:00 +22°C° 0 mm 5 m/s 755 mmHg 70%
    08:00 +23°C° 0 mm 5 m/s 756 mmHg 64%
    09:00 +25°C° 0 mm 4 m/s 756 mmHg 58%
    10:00 +26°C° 0 mm 4 m/s 756 mmHg 53%
    11:00 +26°C° 0 mm 4 m/s 755 mmHg 51%
    12:00 +27°C° 0 mm 4 m/s 755 mmHg 49%
    13:00 +28°C° 0 mm 3 m/s 755 mmHg 48%
    14:00 +28°C° 0 mm 3 m/s 755 mmHg 49%
    15:00 +28°C° 0 mm 3 m/s 754 mmHg 51%
    16:00 +28°C° 0 mm 3 m/s 754 mmHg 52%
    17:00 +27°C° 0 mm 2 m/s 754 mmHg 58%
    18:00 +26°C° 0 mm 2 m/s 754 mmHg 64%
    19:00 +24°C° 0 mm 2 m/s 754 mmHg 70%
    20:00 +24°C° 0 mm 2 m/s 754 mmHg 71%
    21:00 +22°C° 0 mm 3 m/s 754 mmHg 72%
    22:00 +21°C° 0 mm 3 m/s 755 mmHg 73%
    23:00 +20°C° 0 mm 3 m/s 754 mmHg 73%

    29 Iunie, Sâmbătă

    Timp Temperatura Precipitaţii Vânt Presiune Umiditate
    00:00 +19°C° 0 mm 3 m/s 754 mmHg 73%
    01:00 +19°C° 0 mm 3 m/s 754 mmHg 73%
    02:00 +18°C° 0 mm 4 m/s 754 mmHg 77%
    03:00 +18°C° 0 mm 4 m/s 754 mmHg 80%
    04:00 +18°C° 0 mm 4 m/s 754 mmHg 83%
    05:00 +17°C° 0 mm 5 m/s 755 mmHg 77%
    06:00 +19°C° 0 mm 6 m/s 755 mmHg 71%
    07:00 +18°C° 0 mm 7 m/s 756 mmHg 66%
    08:00 +20°C° 0 mm 7 m/s 756 mmHg 62%
    09:00 +21°C° 0 mm 7 m/s 756 mmHg 59%
    10:00 +21°C° 0 mm 7 m/s 757 mmHg 55%
    11:00 +22°C° 0 mm 6 m/s 756 mmHg 54%
    12:00 +23°C° 0 mm 6 m/s 756 mmHg 52%
    13:00 +23°C° 0 mm 6 m/s 756 mmHg 51%
    14:00 +23°C° 0 mm 5 m/s 756 mmHg 51%
    15:00 +23°C° 0 mm 4 m/s 756 mmHg 52%
    16:00 +23°C° 0 mm 4 m/s 756 mmHg 53%
    17:00 +23°C° 0 mm 2 m/s 756 mmHg 58%
    18:00 +22°C° 0 mm 1 m/s 756 mmHg 62%
    19:00 +19°C° 0 mm 0 m/s 756 mmHg 67%
    20:00 +20°C° 0 mm 1 m/s 757 mmHg 68%
    21:00 +20°C° 0 mm 1 m/s 757 mmHg 69%
    22:00 +19°C° 0 mm 1 m/s 757 mmHg 70%
    23:00 +19°C° 0 mm 1 m/s 757 mmHg 69%
    Arată mai mult